Time,TemperatureF,DewpointF,PressureIn,WindDirection,WindDirectionDegrees,WindSpeedMPH,WindSpeedGustMPH,Humidity,HourlyPrecipIn,Conditions,Clouds,dailyrainin,SoftwareType,DateUTC
2013-04-09 00:01:00,62.2,47.7,29.91,SSW,202,5.3,-999.0,59,-99.99,,,0.00,Acu-Link.com,2013-04-09 04:01:00,
2013-04-09 00:46:00,63.5,48.9,29.91,West,270,3.2,-999.0,59,-99.99,,,0.00,Acu-Link.com,2013-04-09 04:46:00,
2013-04-09 01:01:00,64.0,48.9,29.91,SSW,202,5.3,-999.0,58,-99.99,,,0.00,Acu-Link.com,2013-04-09 05:01:00,
2013-04-09 01:17:00,63.5,48.9,29.91,West,270,3.7,-999.0,59,-99.99,,,0.00,Acu-Link.com,2013-04-09 05:17:00,
2013-04-09 01:32:00,62.2,48.1,29.92,SW,225,2.7,-999.0,60,-99.99,,,0.00,Acu-Link.com,2013-04-09 05:32:00,
2013-04-09 01:47:00,62.1,48.9,29.92,SW,225,2.2,-999.0,62,-99.99,,,0.00,Acu-Link.com,2013-04-09 05:47:00,
2013-04-09 02:02:00,61.5,48.4,29.92,South,180,4.7,-999.0,62,-99.99,,,0.00,Acu-Link.com,2013-04-09 06:02:00,
2013-04-09 02:17:00,62.4,49.2,29.92,SSW,202,3.7,-999.0,62,-99.99,,,0.00,Acu-Link.com,2013-04-09 06:17:00,
2013-04-09 02:32:00,63.0,49.3,29.92,WNW,292,4.7,-999.0,61,-99.99,,,0.00,Acu-Link.com,2013-04-09 06:32:00,
2013-04-09 02:47:00,63.3,49.6,29.92,SW,225,4.2,-999.0,61,-99.99,,,0.00,Acu-Link.com,2013-04-09 06:47:00,
2013-04-09 03:02:00,63.7,50.0,29.92,NW,315,6.8,-999.0,61,-99.99,,,0.00,Acu-Link.com,2013-04-09 07:02:00,
2013-04-09 03:18:00,63.7,50.0,29.92,SW,225,6.3,-999.0,61,-99.99,,,0.00,Acu-Link.com,2013-04-09 07:18:00,
2013-04-09 03:33:00,63.3,49.6,29.93,SSW,202,2.7,-999.0,61,-99.99,,,0.00,Acu-Link.com,2013-04-09 07:33:00,
2013-04-09 03:48:00,62.6,49.8,29.93,WSW,247,2.7,-999.0,63,-99.99,,,0.00,Acu-Link.com,2013-04-09 07:48:00,
2013-04-09 04:19:00,61.5,50.0,29.94,SW,225,5.3,-999.0,66,-99.99,,,0.00,Acu-Link.com,2013-04-09 08:19:00,
2013-04-09 04:34:00,60.6,49.6,29.94,SW,225,2.2,-999.0,67,-99.99,,,0.00,Acu-Link.com,2013-04-09 08:34:00,
2013-04-09 04:49:00,59.4,49.2,29.95,SSW,202,2.2,-999.0,69,-99.99,,,0.00,Acu-Link.com,2013-04-09 08:49:00,
2013-04-09 05:04:00,58.8,48.7,29.95,SSW,202,1.1,-999.0,69,-99.99,,,0.00,Acu-Link.com,2013-04-09 09:04:00,
2013-04-09 05:19:00,58.3,48.9,29.96,West,270,0.0,-999.0,71,-99.99,,,0.00,Acu-Link.com,2013-04-09 09:19:00,
2013-04-09 05:34:00,58.3,49.3,29.97,West,270,0.0,-999.0,72,-99.99,,,0.00,Acu-Link.com,2013-04-09 09:34:00,
2013-04-09 05:49:00,57.9,49.3,29.97,SSW,202,1.7,-999.0,73,-99.99,,,0.00,Acu-Link.com,2013-04-09 09:49:00,
2013-04-09 06:05:00,58.1,49.5,29.98,West,270,2.7,-999.0,73,-99.99,,,0.00,Acu-Link.com,2013-04-09 10:05:00,
2013-04-09 06:20:00,57.4,49.2,29.99,West,270,1.7,-999.0,74,-99.99,,,0.00,Acu-Link.com,2013-04-09 10:20:00,
2013-04-09 06:35:00,56.7,49.2,30.00,WSW,247,2.7,-999.0,76,-99.99,,,0.00,Acu-Link.com,2013-04-09 10:35:00,
2013-04-09 06:50:00,55.9,49.1,30.01,SSE,157,1.7,-999.0,78,-99.99,,,0.00,Acu-Link.com,2013-04-09 10:50:00,
2013-04-09 07:06:00,55.8,49.0,30.01,SSW,202,1.7,-999.0,78,-99.99,,,0.00,Acu-Link.com,2013-04-09 11:06:00,
2013-04-09 07:21:00,55.9,49.1,30.02,South,180,0.0,-999.0,78,-99.99,,,0.00,Acu-Link.com,2013-04-09 11:21:00,
2013-04-09 07:36:00,56.7,49.9,30.02,WSW,247,1.7,-999.0,78,-99.99,,,0.00,Acu-Link.com,2013-04-09 11:36:00,
2013-04-09 07:51:00,57.2,50.1,30.03,SSW,202,1.7,-999.0,77,-99.99,,,0.00,Acu-Link.com,2013-04-09 11:51:00,
2013-04-09 08:06:00,58.6,51.1,30.03,SSW,202,1.7,-999.0,76,-99.99,,,0.00,Acu-Link.com,2013-04-09 12:06:00,
2013-04-09 08:21:00,59.5,50.8,30.04,South,180,2.2,-999.0,73,-99.99,,,0.00,Acu-Link.com,2013-04-09 12:21:00,
2013-04-09 08:37:00,60.8,51.7,30.04,SSW,202,3.2,-999.0,72,-99.99,,,0.00,Acu-Link.com,2013-04-09 12:37:00,
2013-04-09 08:52:00,62.8,52.9,30.04,West,270,2.7,-999.0,70,-99.99,,,0.00,Acu-Link.com,2013-04-09 12:52:00,
2013-04-09 09:07:00,63.7,53.3,30.04,SSE,157,2.7,-999.0,69,-99.99,,,0.00,Acu-Link.com,2013-04-09 13:07:00,
2013-04-09 09:22:00,65.1,53.5,30.04,SSW,202,2.7,-999.0,66,-99.99,,,0.00,Acu-Link.com,2013-04-09 13:22:00,
2013-04-09 09:37:00,66.9,53.9,30.03,SSW,202,3.7,-999.0,63,-99.99,,,0.00,Acu-Link.com,2013-04-09 13:37:00,
2013-04-09 10:08:00,66.9,54.3,30.03,SW,225,4.2,-999.0,64,-99.99,,,0.00,Acu-Link.com,2013-04-09 14:08:00,
2013-04-09 10:23:00,70.2,56.1,30.03,SW,225,3.7,-999.0,61,-99.99,,,0.00,Acu-Link.com,2013-04-09 14:23:00,
2013-04-09 10:38:00,70.3,55.3,30.04,West,270,3.2,-999.0,59,-99.99,,,0.00,Acu-Link.com,2013-04-09 14:38:00,
2013-04-09 11:09:00,70.3,55.7,30.04,SW,225,4.7,-999.0,60,-99.99,,,0.00,Acu-Link.com,2013-04-09 15:09:00,
2013-04-09 11:39:00,72.0,56.4,30.03,West,270,3.7,-999.0,58,-99.99,,,0.00,Acu-Link.com,2013-04-09 15:39:00,
2013-04-09 11:55:00,73.0,55.9,30.03,SSW,202,4.7,-999.0,55,-99.99,,,0.00,Acu-Link.com,2013-04-09 15:55:00,
2013-04-09 12:10:00,73.2,56.5,30.02,South,180,2.2,-999.0,56,-99.99,,,0.00,Acu-Link.com,2013-04-09 16:10:00,
2013-04-09 12:25:00,74.1,55.9,30.01,WSW,247,5.3,-999.0,53,-99.99,,,0.00,Acu-Link.com,2013-04-09 16:25:00,
2013-04-09 12:40:00,74.8,57.5,30.00,WSW,247,4.7,-999.0,55,-99.99,,,0.00,Acu-Link.com,2013-04-09 16:40:00,
2013-04-09 12:55:00,74.3,55.5,29.99,South,180,6.8,-999.0,52,-99.99,,,0.00,Acu-Link.com,2013-04-09 16:55:00,
2013-04-09 13:26:00,76.8,56.2,29.98,SW,225,10.9,-999.0,49,-99.99,,,0.00,Acu-Link.com,2013-04-09 17:26:00,
2013-04-09 13:41:00,76.8,56.7,29.97,SSW,202,5.3,-999.0,50,-99.99,,,0.00,Acu-Link.com,2013-04-09 17:41:00,
2013-04-09 14:12:00,75.7,55.7,29.96,SSW,202,5.3,-999.0,50,-99.99,,,0.00,Acu-Link.com,2013-04-09 18:12:00,
2013-04-09 14:27:00,76.6,56.0,29.96,South,180,8.9,-999.0,49,-99.99,,,0.00,Acu-Link.com,2013-04-09 18:27:00,
2013-04-09 14:42:00,76.6,55.4,29.95,WSW,247,5.8,-999.0,48,-99.99,,,0.00,Acu-Link.com,2013-04-09 18:42:00,
2013-04-09 14:57:00,77.2,55.4,29.95,SW,225,4.2,-999.0,47,-99.99,,,0.00,Acu-Link.com,2013-04-09 18:57:00,
2013-04-09 15:12:00,76.1,55.5,29.94,SSE,157,4.2,-999.0,49,-99.99,,,0.00,Acu-Link.com,2013-04-09 19:12:00,
2013-04-09 15:27:00,76.5,55.9,29.93,SW,225,4.7,-999.0,49,-99.99,,,0.00,Acu-Link.com,2013-04-09 19:27:00,
2013-04-09 15:43:00,76.6,54.3,29.92,ESE,112,7.8,-999.0,46,-99.99,,,0.00,Acu-Link.com,2013-04-09 19:43:00,
2013-04-09 15:58:00,76.6,55.4,29.91,SW,225,3.2,-999.0,48,-99.99,,,0.00,Acu-Link.com,2013-04-09 19:58:00,
2013-04-09 16:14:00,77.7,55.3,29.90,SSW,202,5.8,-999.0,46,-99.99,,,0.00,Acu-Link.com,2013-04-09 20:14:00,
2013-04-09 16:29:00,80.6,56.0,29.89,WSW,247,5.3,-999.0,43,-99.99,,,0.00,Acu-Link.com,2013-04-09 20:29:00,
2013-04-09 16:45:00,81.3,56.0,29.88,SSW,202,8.9,-999.0,42,-99.99,,,0.00,Acu-Link.com,2013-04-09 20:45:00,
2013-04-09 17:00:00,80.4,54.5,29.88,WSW,247,6.3,-999.0,41,-99.99,,,0.00,Acu-Link.com,2013-04-09 21:00:00,
2013-04-09 17:15:00,81.1,55.8,29.88,SSW,202,4.2,-999.0,42,-99.99,,,0.00,Acu-Link.com,2013-04-09 21:15:00,
2013-04-09 17:30:00,81.1,55.8,29.88,South,180,9.4,-999.0,42,-99.99,,,0.00,Acu-Link.com,2013-04-09 21:30:00,
2013-04-09 17:46:00,82.0,56.0,29.87,WSW,247,8.3,-999.0,41,-99.99,,,0.00,Acu-Link.com,2013-04-09 21:46:00,
2013-04-09 18:31:00,80.6,54.7,29.87,SW,225,5.3,-999.0,41,-99.99,,,0.00,Acu-Link.com,2013-04-09 22:31:00,
2013-04-09 18:47:00,80.6,54.7,29.87,SSW,202,10.9,-999.0,41,-99.99,,,0.00,Acu-Link.com,2013-04-09 22:47:00,
2013-04-09 19:17:00,78.4,54.0,29.87,WNW,292,4.2,-999.0,43,-99.99,,,0.00,Acu-Link.com,2013-04-09 23:17:00,
2013-04-09 19:32:00,76.5,53.6,29.86,SW,225,2.7,-999.0,45,-99.99,,,0.00,Acu-Link.com,2013-04-09 23:32:00,
2013-04-09 19:48:00,75.2,53.0,29.86,SW,225,2.2,-999.0,46,-99.99,,,0.00,Acu-Link.com,2013-04-09 23:48:00,
2013-04-09 20:03:00,73.8,52.9,29.86,SW,225,1.7,-999.0,48,-99.99,,,0.00,Acu-Link.com,2013-04-10 00:03:00,
2013-04-09 20:18:00,72.3,53.1,29.86,SW,225,2.2,-999.0,51,-99.99,,,0.00,Acu-Link.com,2013-04-10 00:18:00,
2013-04-09 20:33:00,71.6,53.0,29.86,WSW,247,2.2,-999.0,52,-99.99,,,0.00,Acu-Link.com,2013-04-10 00:33:00,
2013-04-09 20:49:00,70.7,52.7,29.86,WSW,247,2.2,-999.0,53,-99.99,,,0.00,Acu-Link.com,2013-04-10 00:49:00,
2013-04-09 21:04:00,70.0,52.6,29.86,WSW,247,2.2,-999.0,54,-99.99,,,0.00,Acu-Link.com,2013-04-10 01:04:00,
2013-04-09 21:19:00,69.8,52.9,29.86,SSW,202,2.7,-999.0,55,-99.99,,,0.00,Acu-Link.com,2013-04-10 01:19:00,
2013-04-09 21:36:00,69.6,52.7,29.86,South,180,4.2,-999.0,55,-99.99,,,0.00,Acu-Link.com,2013-04-10 01:36:00,
2013-04-09 21:51:00,69.1,52.7,29.85,South,180,4.7,-999.0,56,-99.99,,,0.00,Acu-Link.com,2013-04-10 01:51:00,
2013-04-09 22:06:00,68.7,52.8,29.85,SW,225,5.3,-999.0,57,-99.99,,,0.00,Acu-Link.com,2013-04-10 02:06:00,
2013-04-09 22:26:00,68.0,53.1,29.85,SW,225,3.7,-999.0,59,-99.99,,,0.00,Acu-Link.com,2013-04-10 02:26:00,
2013-04-09 22:42:00,67.1,52.7,29.84,WSW,247,3.2,-999.0,60,-99.99,,,0.00,Acu-Link.com,2013-04-10 02:42:00,
2013-04-09 22:57:00,66.6,52.7,29.84,West,270,3.7,-999.0,61,-99.99,,,0.00,Acu-Link.com,2013-04-10 02:57:00,
2013-04-09 23:12:00,66.4,53.0,29.84,SW,225,4.2,-999.0,62,-99.99,,,0.00,Acu-Link.com,2013-04-10 03:12:00,
2013-04-09 23:27:00,66.6,53.2,29.85,WSW,247,3.7,-999.0,62,-99.99,,,0.00,Acu-Link.com,2013-04-10 03:27:00,
2013-04-09 23:42:00,66.7,52.8,29.85,SW,225,4.7,-999.0,61,-99.99,,,0.00,Acu-Link.com,2013-04-10 03:42:00,
2013-04-09 23:57:00,66.7,52.8,29.85,SW,225,3.2,-999.0,61,-99.99,,,0.00,Acu-Link.com,2013-04-10 03:57:00,